TimeMDT,TemperatureF,Dew PointF,Humidity,Sea Level PressureIn,VisibilityMPH,Wind Direction,Wind SpeedMPH,Gust SpeedMPH,PrecipitationIn,Events,Conditions,WindDirDegrees,DateUTC
12:53 AM,26.1,10.9,53,30.32,10.0,NNE,8.1,-,N/A,,Clear,20,2013-04-23 06:53:00
1:53 AM,25.0,10.9,55,30.32,10.0,ENE,3.5,-,N/A,,Clear,70,2013-04-23 07:53:00
2:53 AM,24.1,9.0,53,30.31,10.0,NNE,9.2,-,N/A,,Clear,30,2013-04-23 08:53:00
3:53 AM,21.9,8.1,55,30.32,10.0,NE,8.1,-,N/A,,Clear,40,2013-04-23 09:53:00
4:53 AM,21.0,8.1,57,30.33,10.0,ESE,4.6,-,N/A,,Clear,120,2013-04-23 10:53:00
5:53 AM,19.0,10.0,68,30.33,10.0,NE,5.8,-,N/A,,Clear,50,2013-04-23 11:53:00
6:53 AM,19.0,10.0,68,30.34,10.0,ENE,4.6,-,N/A,,Clear,60,2013-04-23 12:53:00
7:53 AM,23.0,12.0,63,30.35,10.0,NNE,4.6,-,N/A,,Clear,30,2013-04-23 13:53:00
8:53 AM,27.0,10.9,51,30.35,10.0,NNE,5.8,-,N/A,,Clear,30,2013-04-23 14:53:00
9:53 AM,30.9,10.9,43,30.34,10.0,Calm,Calm,-,N/A,,Clear,0,2013-04-23 15:53:00
10:53 AM,33.1,10.0,38,30.33,10.0,Calm,Calm,-,N/A,,Clear,0,2013-04-23 16:53:00
11:53 AM,37.0,10.0,33,30.30,10.0,Calm,Calm,-,N/A,,Clear,0,2013-04-23 17:53:00
12:53 PM,39.9,7.0,26,30.27,10.0,Variable,4.6,-,N/A,,Clear,0,2013-04-23 18:53:00
1:53 PM,43.0,9.0,25,30.23,10.0,South,11.5,-,N/A,,Clear,180,2013-04-23 19:53:00
2:53 PM,44.1,3.9,19,30.20,10.0,West,5.8,16.1,N/A,,Clear,280,2013-04-23 20:53:00
3:53 PM,45.0,3.9,18,30.19,10.0,WSW,9.2,17.3,N/A,,Clear,250,2013-04-23 21:53:00
4:53 PM,46.0,1.0,16,30.17,10.0,WSW,6.9,-,N/A,,Clear,240,2013-04-23 22:53:00
5:53 PM,46.0,-0.0,15,30.16,10.0,West,5.8,-,N/A,,Clear,270,2013-04-23 23:53:00
6:53 PM,46.0,6.1,20,30.15,10.0,SSW,9.2,-,N/A,,Clear,200,2013-04-24 00:53:00
7:53 PM,43.0,9.0,25,30.16,10.0,SSW,10.4,-,N/A,,Clear,210,2013-04-24 01:53:00
8:53 PM,39.0,10.9,32,30.17,10.0,SSW,4.6,-,N/A,,Clear,210,2013-04-24 02:53:00
9:53 PM,37.0,10.9,34,30.19,10.0,South,4.6,-,N/A,,Clear,180,2013-04-24 03:53:00
10:53 PM,35.1,14.0,42,30.21,10.0,NE,4.6,-,N/A,,Clear,40,2013-04-24 04:53:00
11:53 PM,34.0,16.0,48,30.20,10.0,Calm,Calm,-,N/A,,Clear,0,2013-04-24 05:53:00